Location: Bothwell
(42.3833°S, 147.0000°E)
Time: 04:32:38
(UTC+10:00)

DELFI C3 - Visible Passes

Search period start: 25 September 2022 00:00
Search period end: 05 October 2022 01:00
Orbit: 512 x 525 km, 97.3° (Epoch: 23 September)

Date Brightness Start Highest point End Pass type
(mag) Time Alt. Az. Time Alt. Az. Time Alt. Az.
25 Sep ? 20:03:24 10° S 20:07:08 49° WSW 20:10:47 10° NNW visible
26 Sep ? 19:49:19 10° S 19:53:10 75° WSW 19:56:56 10° NNW visible
27 Sep ? 19:35:18 10° SSE 19:39:08 73° E 19:42:55 10° N visible
28 Sep ? 19:21:21 10° SSE 19:25:05 47° E 19:28:44 10° N visible
28 Sep ? 20:56:55 10° SW 20:58:46 13° WSW 21:00:36 10° W visible
29 Sep ? 19:07:30 10° SSE 19:10:57 32° E 19:14:22 10° NNE visible
29 Sep ? 20:42:09 10° SSW 20:44:50 18° WSW 20:47:30 10° WNW visible
30 Sep ? 18:53:46 10° SE 18:56:47 22° E 18:59:47 10° NNE visible
30 Sep ? 20:27:39 10° SSW 20:30:52 26° WSW 20:34:02 10° NW visible
01 Oct ? 20:13:17 10° S 20:16:51 37° WSW 20:20:21 10° NW visible
02 Oct ? 20:59:00 10° S 21:02:46 55° WSW 21:06:28 10° NNW visible
03 Oct ? 20:44:48 10° S 20:48:38 84° WSW 20:52:25 10° NNW visible
04 Oct ? 20:30:39 10° SSE 20:34:28 64° ENE 20:38:13 10° N visible
04 Oct ? 22:07:27 10° SW 22:08:01 10° WSW 22:08:34 10° WSW visible
